Change the Weather History Date:

Wednesday, November 30, 2011

  Actual Average Record
Temperature  
Mean Temperature 50 °F -  
Max Temperature 55 °F 46 °F 59 °F (1954)
Min Temperature 46 °F 35 °F 26 °F (1955)
Degree Days  
Heating Degree Days 14    
Moisture  
Dew Point 39 °F    
Average Humidity 66    
Maximum Humidity 76    
Minimum Humidity 58    
Precipitation  
Precipitation 0.00 in - - ()
Sea Level Pressure  
Sea Level Pressure 29.73 in    
Wind  
Wind Speed 16 mph (WSW)    
Max Wind Speed 24 mph    
Max Gust Speed 30 mph    
Visibility 10 miles    
Events      
Averages and records for this station are not official NWS values.
T = Trace of Precipitation, MM = Missing Value Source: NWS Daily Summary

Daily Weather History Graph

Daily Weather History Graph

Search for Another Location

Airport or City:

Trip Planner

Search our weather history database for the weather conditions in past years. The results will help you decide how hot, cold, wet, or windy it might be!

Date:

Astronomy

Nov. 30, 2011 Rise Set
Actual Time 6:48 AM EST 4:10 PM EST
Civil Twilight 6:17 AM EST 4:41 PM EST
Nautical Twilight 5:42 AM EST 5:16 PM EST
Astronomical Twilight 5:08 AM EST 5:49 PM EST
Moon 11:01 AM EST (11/30) 10:07 PM EST (11/30)
Length of Visible Light 10h 24m
Length of Day
9h 22m
Waxing Crescent, 33% of the Moon is Illuminated
Nov 30
Waxing Crescent
Dec 2
First Quarter
Dec 10
Full
Dec 17
Last Quarter
Dec 24
New

Hourly Weather History & Observations

Time (EST) Temp. Windchill Dew Point Humidity Pressure Visibility Wind Dir Wind Speed Gust Speed Precip Events Conditions
10:35 AM 53.6 °F - 44.6 °F 72% 29.67 in 10.0 mi SSW 15.0 mph 21.9 mph N/A   Mostly Cloudy
10:55 AM 55.4 °F - 44.6 °F 67% 29.67 in 10.0 mi SSW 16.1 mph 24.2 mph N/A   Partly Cloudy
11:15 AM 55.4 °F - 44.6 °F 67% 29.66 in 10.0 mi SW 18.4 mph 25.3 mph N/A   Mostly Cloudy
11:35 AM 55.4 °F - 44.6 °F 67% 29.66 in 10.0 mi SW 19.6 mph 29.9 mph N/A   Mostly Cloudy
12:35 PM 55.4 °F - 46.4 °F 72% 29.65 in 10.0 mi SW 20.7 mph 24.2 mph N/A   Mostly Cloudy
12:55 PM 55.4 °F - 44.6 °F 67% 29.64 in 10.0 mi SW 17.3 mph 24.2 mph N/A   Mostly Cloudy
1:35 PM 55.4 °F - 42.8 °F 63% 29.64 in 10.0 mi SW 24.2 mph 29.9 mph N/A   Clear
1:55 PM 53.6 °F - 42.8 °F 67% 29.64 in 10.0 mi SW 18.4 mph 26.5 mph N/A   Clear
2:15 PM 53.6 °F - 42.8 °F 67% 29.64 in 10.0 mi SW 18.4 mph 26.5 mph N/A   Clear
2:35 PM 53.6 °F - 42.8 °F 67% 29.65 in 10.0 mi SW 18.4 mph 23.0 mph N/A   Clear
2:55 PM 53.6 °F - 41.0 °F 62% 29.65 in 10.0 mi SW 16.1 mph - N/A   Clear
3:15 PM 53.6 °F - 42.8 °F 67% 29.65 in 10.0 mi SW 15.0 mph - N/A   Clear
3:35 PM 51.8 °F - 41.0 °F 67% 29.66 in 10.0 mi SW 15.0 mph 19.6 mph N/A   Clear
3:55 PM 51.8 °F - 41.0 °F 67% 29.67 in 10.0 mi SW 13.8 mph - N/A   Clear
4:15 PM 50.0 °F - 42.8 °F 76% 29.68 in 10.0 mi SW 16.1 mph - N/A   Clear
4:35 PM 50.0 °F - 39.2 °F 66% 29.69 in 10.0 mi SW 16.1 mph - N/A   Clear
5:15 PM 48.2 °F - 39.2 °F 71% 29.71 in 10.0 mi WSW 16.1 mph - N/A   Clear
5:35 PM 48.2 °F - 37.4 °F 66% 29.72 in 10.0 mi WSW 19.6 mph 23.0 mph N/A   Clear
5:55 PM 48.2 °F - 37.4 °F 66% 29.73 in 10.0 mi WSW 19.6 mph 24.2 mph N/A   Clear
6:15 PM 48.2 °F - 37.4 °F 66% 29.74 in 10.0 mi WSW 19.6 mph 24.2 mph N/A   Clear
6:35 PM 48.2 °F - 37.4 °F 66% 29.75 in 10.0 mi WSW 18.4 mph 24.2 mph N/A   Mostly Cloudy
6:55 PM 48.2 °F - 37.4 °F 66% 29.75 in 10.0 mi WSW 19.6 mph 24.2 mph N/A   Overcast
7:35 PM 48.2 °F - 35.6 °F 62% 29.77 in 10.0 mi WSW 13.8 mph - N/A   Partly Cloudy
7:55 PM 48.2 °F - 35.6 °F 62% 29.77 in 10.0 mi WSW 12.7 mph 19.6 mph N/A   Clear
8:15 PM 48.2 °F - 35.6 °F 62% 29.78 in 10.0 mi WSW 11.5 mph - N/A   Clear
8:35 PM 46.4 °F 41.5 °F 35.6 °F 66% 29.79 in 10.0 mi WSW 10.4 mph - N/A   Clear
9:15 PM 46.4 °F 41.9 °F 35.6 °F 66% 29.80 in 10.0 mi WSW 9.2 mph - N/A   Clear
9:35 PM 46.4 °F 40.7 °F 35.6 °F 66% 29.81 in 10.0 mi WSW 12.7 mph - N/A   Clear
9:55 PM 46.4 °F 41.1 °F 35.6 °F 66% 29.81 in 10.0 mi West 11.5 mph - N/A   Clear
10:15 PM 48.2 °F - 33.8 °F 58% 29.82 in 10.0 mi West 13.8 mph 19.6 mph N/A   Clear
10:35 PM 48.2 °F - 33.8 °F 58% 29.82 in 10.0 mi West 10.4 mph 17.3 mph N/A   Mostly Cloudy
10:55 PM 48.2 °F - 35.6 °F 62% 29.83 in 10.0 mi West 13.8 mph - N/A   Overcast
11:15 PM 48.2 °F - 35.6 °F 62% 29.84 in 10.0 mi West 10.4 mph 18.4 mph N/A   Overcast
11:35 PM 46.4 °F 41.1 °F 33.8 °F 62% 29.84 in 10.0 mi West 11.5 mph - N/A   Overcast
11:55 PM 46.4 °F 41.1 °F 35.6 °F 66% 29.84 in 10.0 mi West 11.5 mph - N/A   Scattered Clouds